Showing default

DX 1, 40071

Orbit data source: Space-Track

DX 1, 40071 is a payload satellite owned by Dauria (CIS) in SSO that was launched on Tue, 08 Jul 2014 UTC via a SOYUZ-2-1B launch vehicle from the Tyuratam Missile And Space Complex (TTMTR). Payload-class satellites include a variety of spacecraft equipped with specific instruments for various scientific and technological missions. These include communications satellites like Starlink; space stations such as the ISS; scientific satellites like the Hubble; Earth observation satellites from companies like Planet Labs, Umbra, and HawkEye 360; GPS; miniature CubeSats for education and research; and military/defense satellites.

Loading next visibility...
Identifier
40071, 2014-037C
Orbit
SSO
Country
Flag of CISCIS
Related business
Manufacturer
Dauria
Mission
Operational Commercial Technology
Bus & Motor
DX-1, Unknown motor
Mass
21 kg wet, 21 kg dry
Launch date (UTC)
2014-07-08 (12 years ago)
Launch vehicle
SOYUZ-2-1B
Launch site
Tyuratam Missile And Space Complex (TTMTR)
Object type
Payload
Rocket body
Debris
Shape & HBR
Box, 0.1 m
Radar Cross Section
0.060 m², Medium (>0.1 m² and < 1m²)

Expand to show TLE details & history
Last TLE update: 6 hours ago

TLE from 6 hours ago
0 DX 1
1 40071U 14037C   26103.95485846  .00001031  00000-0  11399-3 0  9999
2 40071  98.3804  61.7920 0008277 116.3015 243.9052 14.89781618636544
Epoch: 2026-04-13T22:54Z
TLE epoch observation values (Epoch: 2026-04-13T22:54:59.770Z)
Latitude
-0.00005°
Longitude
-124.09508°
Altitude
604.182 km
Speed
7.556 km/s
True Right ascension
04h 07m 10s
True Declination
0° 00' 00"
Sunlit
Object was in daylight at epoch
Visualization orbit readout
Latitude
Unknown
Longitude
Unknown
Altitude
Unknown
Speed
Unknown
Apparent Right ascension
Unknown
Apparent Declination
Unknown
Sunlit
N/A
Visualization observer readout
Local Sidereal Time
11:00:07
Azimuth
Unknown
Elevation
Unknown
Doppler factor
Unknown
Orbital elements
Apogee altitude
601.44 km
Perigee altitude
589.895 km
Semi-major axis
6,973.804 km
Eccentricity
0.00083
Inclination
98.3804°
RAAN
61.792°
Arg. of periapsis
116.3015°
True anomaly
243.82006°
Mean anomaly
243.9052°
Eccentric anomaly
243.86263°
Mean motion
3.72682 °/min
Orbital period
96.6 mins
BSTAR
0.00011399
Loading maneuver chart data...
Computing Atmospheric mass density...
Loading historical data...
Loading historical data...
Loading historical data...
Loading historical data...
Loading historical data...
Loading historical data...
Loading historical data...

Documentation

Showing up to 5 results
|